Orbital Elements at Epoch 2459200.5 (2020-Dec-17.0) TDB
Reference: JPL 12 (heliocentric ecliptic J2000)
Element | Value | Uncertainty (1-sigma) | Units |
e | .6684695974881958 | 0.00013652 | |
a | 3.562174534585734 | 0.0015629 | au |
q | 1.180969157268507 | 3.1861e-05 | au |
i | 9.668679573291479 | 0.0014618 | deg |
node | 322.1847489170329 | 0.0012866 | deg |
peri | 239.0995703811098 | 0.0012131 | deg |
M | 343.4303486530764 | 0.010945 | deg |
tp | 2459313.526970773754 (2021-Apr-09.02697077) | 0.0003645 | TDB |
period | 2455.676865289377 6.72 | 1.6161 0.004425 | d yr |
n | .1465990925306769 | 9.6478e-05 | deg/d |
Q | 5.943379911902961 | 0.0026076 | au |
|
| | Orbit Determination Parameters
Additional Information
|